Regional Weather Roundup
Issued by NWS Austin/San Antonio, TX

Home | Current Version | Previous Version | Graphics & Text | Print | Product List | Glossary On
Versions: 1 2 3 4 5 6 7 8 9 10 11 12 13 14 15 16 17 18 19 20 21 22 23 24 25 26 27 28 29 30 31 32 33 34 35 36 37 38 39 40 41 42 43 44 45 46 47 48 49 50
000
ASUS44 KEWX 172311
RWREWX
SOUTH TEXAS REGIONAL WEATHER ROUNDUP
NATIONAL WEATHER SERVICE AUSTIN/SAN ANTONIO TX
600 PM CDT THU AUG 17 2017

NOTE: "FAIR" INDICATED FEW OR NO CLOUDS BELOW 12,000 FEET WITH NO
SIGNIFICANT WEATHER AND/OR OBSTRUCTIONS TO VISIBILITY.

* - THESE STATIONS ARE NOT NWS OR FAA STATIONS...AND ARE NOT SUBJECT
    TO NWS AND FAA QUALITY CONTROL.

TXZ171-172-183>190-180000-
TEXAS HILL COUNTRY AND EDWARDS PLATEAU

CITY           SKY/WX    TMP DP  RH WIND       PRES   REMARKS
JUNCTION       PTSUNNY   95  66  38 E10G16    29.95S HX  98
*LLANO         SUNNY     93  70  46 CALM      29.97S HX  99
BURNET         SUNNY     95  67  39 S9        29.97F HX  99
*HORSESHOE BAY SUNNY     97  64  33 SE7       29.94F HX  99
*KERRVILLE     SUNNY     94  69  44 S12       29.97F HX  99
*FREDERICKSBRG SUNNY     92  60  34 S8        29.98S HX  92
*ROCKSPRINGS   NOT AVBL
*BOERNE STAGE  SUNNY    N/A N/A N/A SE12      29.97F
*CASTROVILLE   SUNNY     99  60  28 SE10G16   29.92F HX  99
HONDO          SUNNY     99  65  32 S9        29.91F HX 102
*UVALDE        SUNNY     99  62  29 SE13G18   29.90F HX 101
DEL RIO        MOSUNNY  102  58  23 SE14G22   29.86F HX 102
LAUGHLIN AFB   MOSUNNY  101  62  27 SE10      29.87F HX 102
CARRIZO SPRGS  MOSUNNY  104  61  24 S7G18     29.84S HX 105
*EAGLE PASS    NOT AVBL
$$

TXZ173-191>194-202-209-217>225-228-180000-
CENTRAL AND SOUTH CENTRAL TEXAS

CITY           SKY/WX    TMP DP  RH WIND       PRES   REMARKS
GEORGETOWN     SUNNY     98  67  36 S6        29.95F HX 102
AUSTIN/BERGSTM MOSUNNY   97  67  37 S12       29.91F HX 101
AUSTIN/MABRY   SUNNY     99  65  32 VRB7      29.93F HX 102
*AUSTIN/EXEC   SUNNY     97  64  34 S7        29.92F HX  99
*LAGO VISTA    MOSUNNY   96  65  36 SE9G16    29.96F HX  98
SAN MARCOS     SUNNY     99  66  34 S12       29.92F HX 102
NEW BRAUNFELS  MOSUNNY   99  67  35 S13       29.91F HX 103
RANDOLPH AFB   SUNNY     97  63  32 S10       29.92F HX  98
PT SAN ANTONIO SUNNY     96  66  38 SE14      29.89F HX  99
SAN ANTONIO    MOSUNNY   95  66  38 SE13      29.92F HX  98
STINSON FIELD  SUNNY     99  66  33 SE10      29.88F HX 103
*LA GRANGE     CLOUDY   100  71  39 S13       29.90F HX 108
*GIDDINGS      CLOUDY    97  65  34 S10       29.93F HX 100
*GONZALES      CLOUDY    99  70  39 S10G17    29.91F HX 106
$$

TXZ163>164-176>182-195>201-210>213-226-227-235-180000-
SOUTHEAST TEXAS

CITY           SKY/WX    TMP DP  RH WIND       PRES   REMARKS
COLLEGE STN    CLOUDY    96  72  45 SE16      29.92F HX 104
*BRYAN         CLOUDY    98  70  40 S13G20    29.93F HX 104
*CALDWELL      NOT AVBL
*CROCKETT      CLOUDY    91  75  59 SE7       29.97F HX 102
*BRENHAM       CLOUDY    98  70  40 S13       29.93F HX 104
HUNTSVILLE     SUNNY     96  67  38 S9        29.95F HX 100
CONROE         PTSUNNY   96  69  41 SE10      29.95F HX 102
HOUSTON BUSH   MOSUNNY   96  70  42 S10       29.94F HX 102
HOUSTON HOBBY  MOSUNNY   95  72  47 S12G21    29.95F HX 103
*HOUSTON SW AP SUNNY     92  74  55 S10       29.97F HX 100
PEARLAND       SUNNY     95  71  45 S9        29.98F HX 102
HOUSTON HOOKS  MOSUNNY   96  71  44 S9        29.94F HX 103
ELLINGTON FLD  MOSUNNY   93  72  49 SE13      29.98  HX 100
SUGAR LAND     SUNNY     94  72  48 S12       29.95F HX 102
*HOUSTON EXEC  SUNNY     93  73  52 S15G22    29.96F HX 102
*CLEVELAND MUN SUNNY     93  78  61 S9        29.97S HX 109
*WHARTON       SUNNY     91  69  48 S10       29.97F HX  95
*COLUMBUS      FAIR      94  67  42 S14G20    29.95S HX  97
*EAGLE LAKE    CLOUDY    96  71  44 S16G22    29.95S HX 103
$$

TXZ214>216-236>238-180000-
THE UPPER TEXAS COAST

CITY           SKY/WX    TMP DP  RH WIND       PRES   REMARKS
*ORANGE        SUNNY     90  77  65 S10       29.99F HX 102
PORT ARTHUR    SUNNY     90  74  59 S12       29.97F HX  99
GALVESTON      MOSUNNY   89  78  70 S12       30.00F HX 103
ANGLETON       SUNNY     91  74  57 S14       29.98F HX 100
*BAY CITY      SUNNY     91  74  58 S12       29.98F HX 100
PALACIOS       MOSUNNY   87  75  67 S14       29.97F HX  96
$$

TXZ229>234-239>247-180000-
TEXAS COASTAL BEND AND RIO GRANDE PLAINS

CITY           SKY/WX    TMP DP  RH WIND       PRES   REMARKS
VICTORIA       SUNNY     91  73  55 S15       29.95F HX  99
*BEEVILLE      SUNNY     95  73  49 SE16G23   29.92S HX 105
ROCKPORT         N/A     92  75  57 SE20      29.93F HX 103
*PORT ARANSAS  SUNNY     87  77  72 SE13G18   29.94F HX  99
*PORT LAVACA   MOSUNNY   89  72  56 S13G18    29.97S HX  96
*INGLESIDE     SUNNY     91  77  63 MISG      29.93F HX 104
CORPUS CHRISTI MOSUNNY   92  74  55 SE20G28   29.91F HX 101
CORPUS NAS     MOSUNNY   91  77  63 SE18G30   29.93F HX 104
*ROBSTOWN      SUNNY     95  71  46 SE18G26   29.91F HX 102
ALICE          SUNNY     95  72  47 SE22G28   29.89F HX 103
KINGSVILLE NAS MOSUNNY   94  76  55 SE21G26   29.90F HX 106
COTULLA        MOSUNNY  103  58  22 S13G22    29.85F HX 102
*FAITH RANCH   SUNNY    102  63  27 S10G21    29.85S HX 104
LAREDO         SUNNY    102  66  30 SE18G25   29.84F HX 106
$$

TXZ248>255-180000-
DEEP SOUTH TEXAS

CITY           SKY/WX    TMP DP  RH WIND       PRES   REMARKS
BROWNSVILLE    SUNNY     90  76  63 SE18      29.91F HX 101
PORT ISABEL    SUNNY     90  76  63 SE20      29.91F HX 101
*SOUTH PADRE   NOT AVBL
HARLINGEN      SUNNY     95  75  52 SE22G30   29.88F HX 107
*HEBBRONVILLE  SUNNY     98  59  27 S17       29.89S HX  97
MCALLEN        SUNNY     98  71  41 SE26G33   29.87F HX 106
*WESLACO       SUNNY     95  71  46 SE16G26   29.87F HX 102
FALFURRIAS     SUNNY     96  72  46 E17G25    29.86F HX 105
EDINBURG       SUNNY     98  65  34 SE18G26   29.87F HX 101
*ZAPATA        MOSUNNY  100  63  28 E18       29.83S HX 102
$$

TXZ213>215-236>238-242>244-246-247-251-254-255-180000-
CMAN STATIONS

STATION/POSITION TIME  TEMP    WIND        PRES    WAVE
                       AIR SEA DIR/SP/G            HT/PER
                 (UTC) (F)     (DEG/KT/KT) (MB)    (FT/S)
SABINE PASS      2248          190/ 10/ 13   N/A
SEA RIM ST PARK  2200   88     200/ 11/ 12 1016.3
NORTH JETTY/GLS  2248          180/ 10/ 12   N/A
EAGLE POINT      2248          210/ 13/ 18   N/A
MORGANS POINT    2248   90 87  160/ 11/ 16 1014.8
MISSION/ARANSAS  2200          140/ 17     1015.0
PORT O`CONNOR    2248          160/ 13/ 16   N/A
PORT ARANSAS     2200   84 88  130/ 14/ 16 1014.6
MALAQUITE BEACH  2248   84 87  120/ 16/ 19 1013.0
BAFFIN BAY       2248   86 90              1013.3
PORT ISABEL      2248   86 83              1013.3
$$




USA.gov is the U.S. government's official web portal to all federal, state and local government web resources and services.